EW3012 Livadea RO current weather conditions

sailwx.info

Last reported at 2018-Jul-11 09:30 UTC.
Time now 2019-Jan-16 16:13 UTC

Location: N 45°12' E 025°55'.
View on Google Maps.

See reports from other nearby stations

  
Tides and Currents Weather Stations Pressure Air Temp Water Temp Dewpoint Dewpoint Depression Visibility Wind Speed Wind Dir Waves Ship Positions
date/time (UTC)wind fromknots sea level pressurealtimeterstation pressurevisibilityair tempwater tempwave heightnotes
2019-Jan-16 15:08 221 1 gusting 5 6.1
2019-Jan-16 15:03 259 3 gusting 10 6.7
2019-Jan-16 14:57 270 3 gusting 10 6.7
2019-Jan-16 14:52 266 3 gusting 7 6.7
2019-Jan-16 14:47 235 5 gusting 9 6.7
2019-Jan-16 14:42 249 5 gusting 9 6.7
2019-Jan-16 14:37 173 4 gusting 10 6.7
2019-Jan-16 14:32 251 5 gusting 10 7.2
2019-Jan-16 14:26 231 5 gusting 11 7.2
2019-Jan-16 14:21 224 5 gusting 12 7.2
2019-Jan-16 14:16 239 6 gusting 12 7.2
2019-Jan-16 14:11 248 6 gusting 17 7.2
2019-Jan-16 14:06 246 5 gusting 17 7.2
2019-Jan-16 14:01 270 4 gusting 12 7.2
2019-Jan-16 13:55 276 4 gusting 9 7.2
2019-Jan-16 13:50 255 3 gusting 7 7.2
2019-Jan-16 13:45 235 3 gusting 7 7.2
2019-Jan-16 13:40 229 3 gusting 8 7.2
2019-Jan-16 13:35 252 4 gusting 8 7.2
2019-Jan-16 13:29 230 5 gusting 13 7.2
2019-Jan-16 13:24 223 6 gusting 13 7.2
2019-Jan-16 13:19 226 6 gusting 13 7.2
2019-Jan-16 13:14 238 6 gusting 13 7.2
2019-Jan-16 13:09 256 6 gusting 13 7.2
2019-Jan-16 13:03 235 6 gusting 11 7.2
2019-Jan-16 12:58 249 6 gusting 13 7.2
2019-Jan-16 12:53 259 6 gusting 13 6.7
2019-Jan-16 12:48 224 5 gusting 12 6.1
2019-Jan-16 12:43 256 2 gusting 9 4.4
2019-Jan-16 12:38 087 2 gusting 4 2.8
2019-Jan-16 12:32 286 1 gusting 4 2.2
2019-Jan-16 12:27 250 2 gusting 7 2.2
2019-Jan-16 12:22 072 2 gusting 7 2.2
2019-Jan-16 12:17 139 2 gusting 6 2.2
2019-Jan-16 12:12 112 2 gusting 6 2.2
2019-Jan-16 12:07 056 2 gusting 4 2.2
2019-Jan-16 12:01 103 2 gusting 5 2.2
2019-Jan-16 11:56 079 2 gusting 5 2.2
2019-Jan-16 11:51 126 2 gusting 5 2.2
2019-Jan-16 11:46 072 1 gusting 4 2.2
2019-Jan-16 11:41 094 1 gusting 3 2.2
2019-Jan-16 11:36 114 1 gusting 3 2.2
2019-Jan-16 11:31 076 1 gusting 4 2.2
2019-Jan-16 11:26 114 1 gusting 4 2.2
2019-Jan-16 11:21 269 1 gusting 4 2.2
2019-Jan-16 11:16 134 1 gusting 5 2.8
2019-Jan-16 11:11 131 2 gusting 6 2.8
2019-Jan-16 11:05 082 3 gusting 6 3.3
2019-Jan-16 11:00 072 3 gusting 7 5.6
2019-Jan-16 10:55 067 4 gusting 13 7.2
2019-Jan-16 10:50 245 5 gusting 13 7.2
2019-Jan-16 10:45 309 5 gusting 11 7.2
2019-Jan-16 10:40 228 5 gusting 11 7.2
2019-Jan-16 10:35 262 4 gusting 11 7.2
2019-Jan-16 10:30 222 5 gusting 16 7.2
2019-Jan-16 10:25 285 5 gusting 16 6.7
2019-Jan-16 10:20 184 5 gusting 12 6.7
2019-Jan-16 10:15 240 5 gusting 12 6.7
2019-Jan-16 10:09 267 6 gusting 9 6.1
2019-Jan-16 10:04 271 4 gusting 9 5.0
2019-Jan-16 09:59 290 1 gusting 7 3.3
2019-Jan-16 09:54 153 0 gusting 2 1.7
2019-Jan-16 09:49 073 0 gusting 2 1.1
2019-Jan-16 09:44 077 1 gusting 4 0.6
2019-Jan-16 09:39 083 1 gusting 5 0.6
2019-Jan-16 09:34 089 1 gusting 5 0.6
2019-Jan-16 09:29 077 1 gusting 4 0.6
2019-Jan-16 09:24 112 1 gusting 3 -0.0
2019-Jan-16 09:18 104 1 gusting 4 -0.6
2019-Jan-16 09:13 149 2 gusting 4 -0.6
2019-Jan-16 09:08 111 1 gusting 4 -0.6
2019-Jan-16 09:03 105 1 gusting 4 -0.6
2019-Jan-16 08:58 087 1 gusting 4 -0.6
2019-Jan-16 08:53 098 0 gusting 3 -0.0
2019-Jan-16 08:48 084 0 gusting 2 -0.6
2019-Jan-16 08:43 198 0 gusting 2 -0.6
2019-Jan-16 08:38 186 0 gusting 2 -1.1
2019-Jan-16 08:33 255 0 gusting 1 -1.1
2019-Jan-16 08:28 136 0 gusting 2 -1.7
2019-Jan-16 08:22 269 1 gusting 2 -2.2
2019-Jan-16 08:17 332 1 gusting 2 -2.8
2019-Jan-16 08:12 297 0 gusting 3 -2.8
2019-Jan-16 08:07 045 0 gusting 3 -2.8
2019-Jan-16 08:02 224 0 gusting 1 -3.3
2019-Jan-16 07:57 357 0 gusting 2 -3.9
2019-Jan-16 07:52 117 0 gusting 2 -3.9
2019-Jan-16 07:47 217 0 gusting 2 -4.4
2019-Jan-16 07:42 077 0 gusting 2 -5.0
2019-Jan-16 07:36 095 0 gusting 1 -5.0
2019-Jan-16 07:31 295 0 gusting 2 -5.6
2019-Jan-16 07:26 124 0 gusting 2 -5.6
2019-Jan-16 07:21 127 0 gusting 2 -5.6
2019-Jan-16 07:16 066 0 gusting 2 -5.6
2019-Jan-16 07:11 238 0 gusting 1 -6.1
2019-Jan-16 07:06 122 0 gusting 1 -6.1
2019-Jan-16 07:00 287 0 gusting 1 -6.7
2019-Jan-16 06:55 247 0 gusting 2 -6.7
2019-Jan-16 06:50 267 0 gusting 2 -6.7
2019-Jan-16 06:45 139 0 gusting 2 -6.7
2019-Jan-16 06:40 253 0 gusting 2 -6.7
2019-Jan-16 06:35 134 0 gusting 2 -7.2
2019-Jan-16 06:30 356 0 gusting 2 -7.2
2019-Jan-16 06:24 226 0 gusting 1 -7.2
2019-Jan-16 06:19 204 1 gusting 4 -7.8
2019-Jan-16 06:14 018 0 gusting 4 -7.8
2019-Jan-16 06:09 276 0 gusting 1 -8.3
2019-Jan-16 06:04 306 0 gusting 1 -8.3
2019-Jan-16 05:58 289 -8.3
2019-Jan-16 05:53 110 -8.3
2019-Jan-16 05:48 076 -8.3
2019-Jan-16 05:43 332 -8.9
2019-Jan-16 05:37 289 -8.9
2019-Jan-16 05:32 289 -8.9
2019-Jan-16 05:27 289 -8.9
2019-Jan-16 05:22 289 -9.4
2019-Jan-16 05:17 127 -9.4
2019-Jan-16 05:12 329 -9.4
2019-Jan-16 05:06 251 -9.4
2019-Jan-16 05:01 250 -9.4
2019-Jan-16 04:56 317 -9.4
2019-Jan-16 04:51 250 -9.4
2019-Jan-16 04:46 295 -9.4
2019-Jan-16 04:41 280 -9.4
2019-Jan-16 04:35 312 -10.0
2019-Jan-16 04:30 326 0 gusting 1 -10.0
2019-Jan-16 04:25 246 0 gusting 1 -10.0
2019-Jan-16 04:20 289 -10.0
2019-Jan-16 04:15 266 -10.6
2019-Jan-16 04:10 246 0 gusting 2 -10.6
2019-Jan-16 04:04 282 0 gusting 2 -10.6
2019-Jan-16 03:59 104 -10.6
2019-Jan-16 03:54 266 -10.6
2019-Jan-16 03:49 224 -10.6
2019-Jan-16 03:44 278 -11.1
2019-Jan-16 03:38 250 -10.6
2019-Jan-16 03:33 250 -10.6
2019-Jan-16 03:28 264 -10.6
2019-Jan-16 03:23 264 0 gusting 1 -10.6
2019-Jan-16 03:18 262 0 gusting 1 -10.0
2019-Jan-16 03:12 256 0 gusting 2 -10.0
2019-Jan-16 03:07 233 0 gusting 3 -10.0
2019-Jan-16 03:02 288 0 gusting 3 -10.0
2019-Jan-16 02:57 323 -10.0
2019-Jan-16 02:52 267 0 gusting 1 -10.0
2019-Jan-16 02:47 242 0 gusting 1 -10.0
2019-Jan-16 02:41 276 0 gusting 3 -9.4
2019-Jan-16 02:36 250 0 gusting 3 -9.4
2019-Jan-16 02:31 281 0 gusting 2 -9.4
2019-Jan-16 02:26 302 -10.0
2019-Jan-16 02:21 264 -9.4
2019-Jan-16 02:16 253 -9.4
2019-Jan-16 02:10 253 -8.9
2019-Jan-16 02:05 248 -8.3
2019-Jan-16 02:00 269 -8.3
2019-Jan-16 01:55 268 0 gusting 1 -8.3
2019-Jan-16 01:50 293 0 gusting 1 -8.3
2019-Jan-16 01:45 244 -8.3
2019-Jan-16 01:39 269 -7.8
2019-Jan-16 01:34 273 -7.8
2019-Jan-16 01:29 287 -7.2
2019-Jan-16 01:24 273 -7.2
2019-Jan-16 01:19 027 -7.2
2019-Jan-16 01:14 005 -7.2
2019-Jan-16 01:08 005 -7.2
2019-Jan-16 01:03 245 -6.7
2019-Jan-16 00:58 214 -6.1
2019-Jan-16 00:53 212 0 gusting 2 -5.6
2019-Jan-16 00:48 212 0 gusting 2 -5.0
2019-Jan-16 00:43 044 -6.1
2019-Jan-16 00:37 045 -6.1
2019-Jan-16 00:32 245 0 gusting 2 -5.6
2019-Jan-16 00:27 280 1 gusting 2 -5.6
2019-Jan-16 00:22 246 1 gusting 4 -5.6
2019-Jan-16 00:17 252 1 gusting 5 -5.0
2019-Jan-16 00:11 281 2 gusting 5 -5.0
2019-Jan-16 00:06 274 2 gusting 4 -5.0
2019-Jan-16 00:01 276 1 gusting 3 -4.4
2019-Jan-15 23:56 259 0 gusting 2 -3.9
2019-Jan-15 23:51 323 0 gusting 2 -3.9
2019-Jan-15 23:46 295 0 gusting 2 -3.9
2019-Jan-15 23:40 295 1 gusting 3 -3.9
2019-Jan-15 23:35 277 1 gusting 3 -3.9
2019-Jan-15 23:30 273 1 gusting 3 -3.3
2019-Jan-15 23:25 257 0 gusting 2 -3.3
2019-Jan-15 23:20 259 0 gusting 1 -3.3
2019-Jan-15 23:15 283 1 gusting 3 -3.3
2019-Jan-15 23:09 264 0 gusting 3 -2.8
2019-Jan-15 23:04 018 0 gusting 2 -3.3
2019-Jan-15 22:59 214 0 gusting 2 -3.3
2019-Jan-15 22:54 358 0 gusting 2 -3.3
2019-Jan-15 22:49 356 0 gusting 2 -2.8
2019-Jan-15 22:44 332 0 gusting 2 -3.3
2019-Jan-15 22:38 316 0 gusting 1 -2.8
2019-Jan-15 22:33 220 1 gusting 5 -2.2
2019-Jan-15 22:28 257 3 gusting 6 -2.2
2019-Jan-15 22:23 231 3 gusting 10 -2.2
2019-Jan-15 22:18 210 4 gusting 10 -2.2
2019-Jan-15 22:13 023 4 gusting 8 -2.2
2019-Jan-15 22:07 229 4 gusting 9 -2.2
2019-Jan-15 22:02 250 5 gusting 10 -2.2
2019-Jan-15 21:57 278 6 gusting 11 -2.2
2019-Jan-15 21:52 250 6 gusting 15 -2.2
2019-Jan-15 21:47 254 5 gusting 15 -2.2
2019-Jan-15 21:42 181 4 gusting 10 -2.8
2019-Jan-15 21:37 248 3 gusting 8 -2.8
2019-Jan-15 21:31 231 3 gusting 8 -2.8
2019-Jan-15 21:26 277 3 gusting 8 -3.3
2019-Jan-15 21:21 191 3 gusting 8 -3.3
2019-Jan-15 21:16 249 2 gusting 6 -3.9
2019-Jan-15 21:11 271 0 gusting 6 -3.9
2019-Jan-15 21:06 278 1 gusting 4 -3.9
2019-Jan-15 21:00 352 2 gusting 6 -3.9
2019-Jan-15 20:55 247 2 gusting 6 -3.9
2019-Jan-15 20:50 188 2 gusting 6 -4.4
2019-Jan-15 20:45 240 2 gusting 6 -4.4
2019-Jan-15 20:40 271 2 gusting 6 -5.0
2019-Jan-15 20:34 266 1 gusting 6 -5.6
2019-Jan-15 20:29 271 0 gusting 2 -6.7
2019-Jan-15 20:24 297 -7.2
2019-Jan-15 20:19 339 -7.2
2019-Jan-15 20:14 357 -7.2
2019-Jan-15 20:09 079 0 gusting 2 -7.2
2019-Jan-15 20:03 101 -6.1
2019-Jan-15 19:58 124 -5.6
2019-Jan-15 19:53 307 -6.1
2019-Jan-15 19:48 323 0 gusting 2 -6.1
2019-Jan-15 19:43 357 0 gusting 1 -6.7
2019-Jan-15 19:37 224 -6.7
2019-Jan-15 19:33 068 -6.7
2019-Jan-15 19:27 068 -6.7
2019-Jan-15 19:22 068 -6.1
2019-Jan-15 19:17 082 -6.1
2019-Jan-15 19:12 253 0 gusting 1 -6.1
2019-Jan-15 19:07 240 0 gusting 1 -5.6
2019-Jan-15 19:02 355 -5.0
2019-Jan-15 18:57 041 0 gusting 2 -4.4
2019-Jan-15 18:51 041 0 gusting 2 -4.4
2019-Jan-15 18:46 289 -4.4
2019-Jan-15 18:41 319 -4.4
2019-Jan-15 18:36 319 -3.9
2019-Jan-15 18:30 034 0 gusting 1 -3.3
2019-Jan-15 18:25 034 0 gusting 4 -3.3
2019-Jan-15 18:20 260 0 gusting 4 -3.3
2019-Jan-15 18:15 352 0 gusting 2 -2.8
2019-Jan-15 18:10 041 0 gusting 6 -2.8
2019-Jan-15 18:05 260 0 gusting 6 -3.3
2019-Jan-15 17:59 353 0 gusting 6 -3.3
2019-Jan-15 17:54 347 0 gusting 6 -3.3
2019-Jan-15 17:49 051 0 gusting 4 -3.3
2019-Jan-15 17:44 277 0 gusting 3 -3.3
2019-Jan-15 17:39 309 0 gusting 3 -3.9
2019-Jan-15 17:34 026 0 gusting 4 -3.9
2019-Jan-15 17:28 328 0 gusting 4 -3.9
2019-Jan-15 17:23 283 0 gusting 3 -3.9
2019-Jan-15 17:18 003 0 gusting 3 -3.9
2019-Jan-15 17:13 011 0 gusting 3 -3.9
2019-Jan-15 17:08 285 0 gusting 3 -4.4
2019-Jan-15 17:03 113 0 gusting 2 -4.4
2019-Jan-15 16:57 056 0 gusting 2 -4.4
2019-Jan-15 16:52 012 1 gusting 3 -5.0
2019-Jan-15 16:47 271 1 gusting 3 -5.0
2019-Jan-15 16:42 076 0 gusting 2 -5.0
2019-Jan-15 16:37 325 -5.0
2019-Jan-15 16:32 280 0 gusting 2 -4.4
2019-Jan-15 16:26 058 0 gusting 2 -4.4
2019-Jan-15 16:21 048 0 gusting 2 -3.9
2019-Jan-15 16:16 049 0 gusting 2 -4.4
2019-Jan-15 16:11 060 0 gusting 2 -4.4
2019-Jan-15 16:06 332 -4.4
2019-Jan-15 16:01 314 0 gusting 1 -3.9
2019-Jan-15 15:55 347 0 gusting 1 -3.9
2019-Jan-15 15:50 034 -3.9
2019-Jan-15 15:45 032 0 gusting 1 -3.3
2019-Jan-15 15:40 032 -3.3
2019-Jan-15 15:35 345 -3.3
2019-Jan-15 15:30 250 0 gusting 1 -3.3
2019-Jan-15 15:24 031 1 gusting 2 -3.3
2019-Jan-15 15:19 044 0 gusting 2 -3.3
2019-Jan-15 15:14 036 0 gusting 1 -2.8
2019-Jan-15 15:09 026 0 gusting 1 -2.8
2019-Jan-15 15:04 061 0 gusting 3 -2.2
2019-Jan-15 14:58 103 0 gusting 3 -1.7
2019-Jan-15 14:53 195 1 gusting 10 -1.7
2019-Jan-15 14:48 281 4 gusting 10 -1.7
2019-Jan-15 14:43 247 3 gusting 8 -1.7
2019-Jan-15 14:38 248 2 gusting 6 -1.7
2019-Jan-15 14:33 274 2 gusting 5 -1.1
2019-Jan-15 14:27 277 3 gusting 5 -1.1
2019-Jan-15 14:22 232 3 gusting 8 -1.1
2019-Jan-15 14:17 229 3 gusting 8 -0.6
2019-Jan-15 14:12 262 4 gusting 7 -0.6
2019-Jan-15 14:07 223 4 gusting 8 -0.6
2019-Jan-15 14:02 224 4 gusting 8 -0.0
2019-Jan-15 13:57 290 3 gusting 6 -0.0
2019-Jan-15 13:51 214 2 gusting 7 -0.0
2019-Jan-15 13:46 208 2 gusting 7 -0.0
2019-Jan-15 13:41 232 3 gusting 7 -0.0
2019-Jan-15 13:36 312 4 gusting 7 -0.0
2019-Jan-15 13:31 255 3 gusting 10 -0.0
2019-Jan-15 13:26 290 3 gusting 10 -0.0
2019-Jan-15 13:21 270 4 gusting 9 -0.0
2019-Jan-15 13:16 264 5 gusting 10 -0.0
2019-Jan-15 13:11 259 3 gusting 10 -0.0
2019-Jan-15 13:05 218 2 gusting 8 0.6
2019-Jan-15 13:00 267 2 gusting 8 0.6
2019-Jan-15 12:55 060 2 gusting 5 0.6
2019-Jan-15 12:50 211 3 gusting 8 0.6
2019-Jan-15 12:45 249 3 gusting 8 0.6
2019-Jan-15 12:40 259 2 gusting 8 0.6
2019-Jan-15 12:35 072 3 gusting 8 0.6
2019-Jan-15 12:30 201 2 gusting 6 1.1
2019-Jan-15 12:25 259 2 gusting 6 1.1
2019-Jan-15 12:19 249 3 gusting 8 1.1
2019-Jan-15 12:14 285 4 gusting 9 1.1
2019-Jan-15 12:09 311 4 gusting 9 1.1
2019-Jan-15 12:04 246 3 gusting 7 1.7
2019-Jan-15 11:59 193 4 gusting 7 1.7
2019-Jan-15 11:54 237 2 gusting 7 1.7
2019-Jan-15 11:49 104 0 gusting 4 2.2
2019-Jan-15 11:44 029 0 gusting 3 2.2
2019-Jan-15 11:39 133 0 gusting 3 2.2
2019-Jan-15 11:34 243 0 gusting 2 2.2
2019-Jan-15 11:29 134 1 gusting 3 1.7
2019-Jan-15 11:24 046 1 gusting 5 1.7
2019-Jan-15 11:19 121 1 gusting 6 1.7
2019-Jan-15 11:14 216 1 gusting 6 1.7
2019-Jan-15 11:09 148 1 gusting 4 1.7
2019-Jan-15 11:03 239 1 gusting 3 1.1
2019-Jan-15 10:58 150 1 gusting 6 1.1
2019-Jan-15 10:53 266 1 gusting 6 1.1
2019-Jan-15 10:48 248 1 gusting 6 1.1
2019-Jan-15 10:43 146 1 gusting 6 1.1
2019-Jan-15 10:38 242 0 gusting 3 1.1
2019-Jan-15 10:33 208 1 gusting 5 1.1
2019-Jan-15 10:28 211 1 gusting 6 0.6
2019-Jan-15 10:23 162 1 gusting 6 1.1
2019-Jan-15 10:17 315 0 gusting 3 1.1
2019-Jan-15 10:13 284 2 gusting 7 0.6
2019-Jan-15 10:07 229 3 gusting 7 0.6
2019-Jan-15 10:02 225 2 gusting 6 0.6
2019-Jan-15 09:57 246 1 gusting 4 1.1
2019-Jan-15 09:52 228 1 gusting 4 0.6
2019-Jan-15 09:47 276 0 gusting 4 1.1
2019-Jan-15 09:42 267 0 gusting 3 1.1
2019-Jan-15 09:37 280 0 gusting 3 1.1
2019-Jan-15 09:32 225 0 gusting 3 1.1
2019-Jan-15 09:27 122 0 gusting 3 1.1
2019-Jan-15 09:21 158 0 gusting 3 1.1
2019-Jan-15 09:16 131 0 gusting 2 1.1
2019-Jan-15 09:11 346 0 gusting 2 1.1
2019-Jan-15 09:06 134 1.1
2019-Jan-15 09:01 283 1.1
2019-Jan-15 08:56 256 0.6
2019-Jan-15 08:51 022 0 gusting 2 0.6
2019-Jan-15 08:46 040 1 gusting 2 0.6
2019-Jan-15 08:40 146 1 gusting 5 0.6
2019-Jan-15 08:35 203 1 gusting 5 -0.0
2019-Jan-15 08:30 229 0 gusting 4 -0.0
2019-Jan-15 08:25 250 0 gusting 2 -0.0
2019-Jan-15 08:20 262 1 gusting 4 -0.0
2019-Jan-15 08:15 248 1 gusting 4 -0.0
2019-Jan-15 08:10 253 1 gusting 3 -0.0
2019-Jan-15 08:04 232 1 gusting 4 -0.0
2019-Jan-15 07:59 262 1 gusting 4 -0.0
2019-Jan-15 07:54 276 1 gusting 3 -0.0
2019-Jan-15 07:49 354 1 gusting 7 -0.0
2019-Jan-15 07:44 083 1 gusting 7 -0.0
2019-Jan-15 07:39 092 1 gusting 7 -0.0
2019-Jan-15 07:34 139 1 gusting 7 -0.0
2019-Jan-15 07:28 260 1 gusting 3 -0.0
2019-Jan-15 07:23 020 1 gusting 3 -0.0
2019-Jan-15 07:18 029 0 gusting 2 -0.0
2019-Jan-15 07:13 049 0 gusting 2 -0.0
2019-Jan-15 07:08 070 0 gusting 6 -0.6
2019-Jan-15 07:02 113 1 gusting 6 -0.6
2019-Jan-15 06:57 117 1 gusting 3 -0.6
2019-Jan-15 06:52 281 0 gusting 1 -0.6
2019-Jan-15 06:47 127 0 gusting 2 -0.0
2019-Jan-15 06:41 290 1 gusting 2 -0.0
2019-Jan-15 06:36 001 1 gusting 5 -0.0
2019-Jan-15 06:31 250 1 gusting 5 -0.0
2019-Jan-15 06:26 046 2 gusting 7 -0.0
2019-Jan-15 06:21 245 2 gusting 7 -0.0
2019-Jan-15 06:15 325 2 gusting 11 -0.0
2019-Jan-15 06:10 340 3 gusting 11 -0.0
2019-Jan-15 06:05 313 3 gusting 6 -0.0
2019-Jan-15 06:00 006 2 gusting 6 -0.0
2019-Jan-15 05:55 034 2 gusting 7 -0.0
2019-Jan-15 05:50 290 2 gusting 6 -0.0
2019-Jan-15 05:44 330 1 gusting 6 -0.0
2019-Jan-15 05:39 188 0 gusting 4 -0.6
2019-Jan-15 05:34 267 0 gusting 4 -0.6
2019-Jan-15 05:29 225 0 gusting 5 -0.6
2019-Jan-15 05:24 309 0 gusting 5 -1.1
2019-Jan-15 05:19 093 0 gusting 2 -1.1
2019-Jan-15 05:14 017 -1.1
2019-Jan-15 05:08 280 -1.1
2019-Jan-15 05:03 350 0 gusting 0 -1.1
2019-Jan-15 04:58 349 -1.1
2019-Jan-15 04:53 349 0 gusting 1 -1.1
2019-Jan-15 04:48 060 0 gusting 0 -1.1
2019-Jan-15 04:43 060 0 gusting 1 -1.1
2019-Jan-15 04:37 069 0 gusting 1 -1.1
2019-Jan-15 04:32 269 1 gusting 1 -0.6
2019-Jan-15 04:27 022 0 gusting 1 -0.6
2019-Jan-15 04:22 022 0 gusting 2 -0.6
2019-Jan-15 04:17 022 1 gusting 2 -0.6
2019-Jan-15 04:12 038 0 gusting 1 -0.6
2019-Jan-15 04:06 030 -1.1
2019-Jan-15 04:01 030 -1.1
2019-Jan-15 03:56 031 -1.1
2019-Jan-15 03:51 032 1 gusting 3 -0.6
2019-Jan-15 03:46 031 1 gusting 3 -0.6
2019-Jan-15 03:41 031 2 gusting 7 -0.6
2019-Jan-15 03:35 013 2 gusting 7 -1.1
2019-Jan-15 03:30 256 0 gusting 2 -1.7
2019-Jan-15 03:25 269 -1.7
2019-Jan-15 03:20 269 -1.7
2019-Jan-15 03:15 269 -1.7
2019-Jan-15 03:10 269 -1.7
2019-Jan-15 03:04 269 -1.1
2019-Jan-15 02:59 229 0 gusting 1 -1.1
2019-Jan-15 02:54 346 -0.6
2019-Jan-15 02:49 034 0 gusting 3 -1.1
2019-Jan-15 02:44 034 0 gusting 3 -0.6
2019-Jan-15 02:38 009 0 gusting 1 -1.1
2019-Jan-15 02:33 009 0 gusting 1 -1.1
2019-Jan-15 02:28 008 0 gusting 2 -1.7
2019-Jan-15 02:23 337 0 gusting 2 -1.1
2019-Jan-15 02:18 071 0 gusting 1 -1.1
2019-Jan-15 02:13 295 0 gusting 1 -1.1
2019-Jan-15 02:07 342 0 gusting 1 -1.7
2019-Jan-15 02:02 326 -1.7
2019-Jan-15 01:57 205 -1.1
2019-Jan-15 01:52 347 -1.1
2019-Jan-15 01:47 325 -1.1
2019-Jan-15 01:42 325 -1.1
2019-Jan-15 01:36 058 -1.7
2019-Jan-15 01:31 058 -1.7
2019-Jan-15 01:26 063 -1.7
2019-Jan-15 01:21 063 -1.1
2019-Jan-15 01:16 063 0 gusting 0 -0.6
2019-Jan-15 01:11 062 0 gusting 1 -0.6
2019-Jan-15 01:05 084 -0.6
2019-Jan-15 01:00 101 -0.6
2019-Jan-15 00:55 333 0 gusting 1 -0.0
2019-Jan-15 00:50 333 0 gusting 2 -0.0
2019-Jan-15 00:45 064 0 gusting 2 -0.0
2019-Jan-15 00:40 194 -0.6
2019-Jan-15 00:35 287 -0.6
2019-Jan-15 00:29 350 0 gusting 5 -0.6
2019-Jan-15 00:24 315 -0.6
2019-Jan-15 00:19 270 -0.6
2019-Jan-15 00:14 349 -1.1
2019-Jan-15 00:08 240 -1.1
2019-Jan-15 00:03 343 -1.7
2019-Jan-14 23:58 290 0 gusting 1 -1.7
2019-Jan-14 23:53 275 -2.2
2019-Jan-14 23:48 271 -2.2
2019-Jan-14 23:43 333 -2.8
2019-Jan-14 23:37 333 -2.8
2019-Jan-14 23:32 080 -2.8
2019-Jan-14 23:27 080 -2.8
2019-Jan-14 23:22 080 0 gusting 2 -2.8
2019-Jan-14 23:17 359 0 gusting 1 -3.3
2019-Jan-14 23:12 353 -4.4
2019-Jan-14 23:06 263 -4.4
2019-Jan-14 23:01 305 0 gusting 2 -4.4
2019-Jan-14 22:56 340 0 gusting 2 -4.4
2019-Jan-14 22:51 350 0 gusting 2 -4.4
2019-Jan-14 22:46 293 0 gusting 3 -5.0
2019-Jan-14 22:41 003 0 gusting 3 -5.6
2019-Jan-14 22:35 142 0 gusting 2 -6.1
2019-Jan-14 22:30 260 0 gusting 2 -5.6
2019-Jan-14 22:25 033 0 gusting 2 -5.6
2019-Jan-14 22:20 284 0 gusting 3 -5.6
2019-Jan-14 22:15 339 0 gusting 3 -5.6
2019-Jan-14 22:10 346 0 gusting 1 -6.1
2019-Jan-14 22:04 262 0 gusting 2 -5.6
2019-Jan-14 21:59 316 1 gusting 3 -5.6
2019-Jan-14 21:54 115 0 gusting 3 -5.6
2019-Jan-14 21:49 135 -6.7
2019-Jan-14 21:44 302 -6.7
2019-Jan-14 21:39 269 0 gusting 4 -6.7
2019-Jan-14 21:33 217 -6.7
2019-Jan-14 21:28 269 -6.7
2019-Jan-14 21:23 280 -6.7
2019-Jan-14 21:18 029 -6.7
2019-Jan-14 21:13 029 -6.7
2019-Jan-14 21:07 304 -6.1
2019-Jan-14 21:02 289 0 gusting 2 -5.6
2019-Jan-14 20:57 253 1 gusting 3 -5.6
2019-Jan-14 20:52 255 1 gusting 3 -5.0
2019-Jan-14 20:47 252 1 gusting 3 -4.4
2019-Jan-14 20:42 261 0 gusting 2 -5.0
2019-Jan-14 20:36 281 -6.1
2019-Jan-14 20:31 083 -6.1
2019-Jan-14 20:26 083 0 gusting 3 -5.6
2019-Jan-14 20:21 260 0 gusting 3 -5.0
2019-Jan-14 20:16 038 1 gusting 6 -4.4
2019-Jan-14 20:11 240 2 gusting 6 -3.9
2019-Jan-14 20:05 283 1 gusting 6 -5.0
2019-Jan-14 20:00 252 -6.7
2019-Jan-14 19:55 243 -6.7
2019-Jan-14 19:50 242 -6.7
2019-Jan-14 19:45 250 -6.7
2019-Jan-14 19:40 277 -6.7
2019-Jan-14 19:34 242 -6.7
2019-Jan-14 19:29 238 -6.7
2019-Jan-14 19:24 238 -6.7
2019-Jan-14 19:19 307 -6.7
2019-Jan-14 19:13 307 -6.7
2019-Jan-14 19:08 264 -6.7
2019-Jan-14 19:03 268 -6.7
2019-Jan-14 18:58 269 -6.7
2019-Jan-14 18:53 224 -6.1
2019-Jan-14 18:48 315 -6.1
2019-Jan-14 18:42 315 -6.1
2019-Jan-14 18:37 318 -6.1
2019-Jan-14 18:32 318 -6.1
2019-Jan-14 18:27 318 -5.6
2019-Jan-14 18:22 318 -5.6
2019-Jan-14 18:16 316 -5.6
2019-Jan-14 18:11 316 -5.6
2019-Jan-14 18:06 076 -5.0
2019-Jan-14 18:01 076 -5.0
2019-Jan-14 17:56 212 -5.0
2019-Jan-14 17:51 212 -4.4
2019-Jan-14 17:45 138 0 gusting 2 -3.9
2019-Jan-14 17:40 252 0 gusting 4 -3.3
2019-Jan-14 17:35 221 0 gusting 4 -3.9
2019-Jan-14 17:30 271 -4.4
2019-Jan-14 17:25 278 0 gusting 1 -5.0
2019-Jan-14 17:20 248 0 gusting 1 -5.0
2019-Jan-14 17:14 243 -5.0
2019-Jan-14 17:09 052 -5.0
2019-Jan-14 17:04 256 -4.4
2019-Jan-14 16:59 228 0 gusting 2 -4.4
2019-Jan-14 16:54 289 0 gusting 2 -4.4
2019-Jan-14 16:48 248 0 gusting 2 -3.9
2019-Jan-14 16:43 013 0 gusting 2 -3.9
2019-Jan-14 16:38 346 0 gusting 2 -3.9
2019-Jan-14 16:33 271 -3.9
2019-Jan-14 16:28 184 -3.9
2019-Jan-14 16:23 323 -3.3
2019-Jan-14 16:17 267 -3.3
2019-Jan-14 16:12 267 -3.3
2019-Jan-14 16:07 267 -3.3
2019-Jan-14 16:02 267 -2.8